Probability
3 1 0 1 2 3 2 2 2 2 1 0 0 0 0 0 0 0 0 0 0 0 0 0 0 0 0 0 0 0 0 0 0 0 0 0 0 0 0 0 0 0 0
1 0 0 1 2 3 3 2 2 1 0 0 0 0 0 0 0 0 0 0 0 0 0 0 0 0 0 0 0 0 0 0 0 0 0 0 0 0 0 0 0 0 0
0 0 0 1 3 3 3 2 1 0 0 0 0 0 0 0 0 0 0 0 0 0 0 0 0 0 0 0 0 0 0 0 0 0 0 0 0 0 0 0 0 0 0
0 0 1 2 3 3 3 1 0 0 0 0 0 0 0 0 0 0 0 0 0 0 0 0 0 0 0 0 0 0 0 0 0 0 0 0 0 0 0 0 0 0 0
0 0 1 2 3 3 2 1 0 0 0 0 0 0 0 0 0 0 0 0 0 0 0 0 0 0 0 0 0 0 0 0 0 0 0 0 0 0 0 0 0 0 0
0 0 0 1 1 2 2 1 0 0 0 0 0 0 0 0 0 0 0 0 0 0 0 0 0 0 0 0 0 0 0 0 0 0 0 0 0 0 0 0 0 0 0
0 0 0 0 1 2 2 2 1 0 0 0 0 0 0 0 0 0 0 0 0 0 0 0 0 0 0 0 0 0 0 0 0 0 0 0 0 0 0 0 0 0 0
0 0 0 0 0 1 2 2 1 0 0 0 0 0 0 0 0 0 0 0 0 0 0 0 0 0 0 0 0 0 0 0 0 0 0 0 0 0 0 0 0 0 0
0 0 0 0 0 2 3 3 1 1 0 0 0 0 0 0 0 0 0 0 0 0 0 0 0 0 0 0 0 0 0 0 0 0 0 0 0 0 0 0 0 0 0
0 0 0 0 0 1 3 3 3 2 1 0 0 0 0 0 0 0 0 0 0 0 0 0 0 0 0 0 0 0 0 0 0 0 0 0 0 0 0 0 0 0 0
0 0 0 0 0 1 2 3 3 2 1 0 0 0 0 0 0 0 0 0 0 0 0 0 0 0 0 0 0 0 0 0 0 0 0 0 0 0 0 0 0 0 0
0 0 0 0 0 1 2 3 3 2 1 0 0 0 0 0 0 0 0 0 0 0 0 0 0 0 0 0 0 0 0 0 0 0 0 0 0 0 0 0 0 0 0
0 0 0 0 0 1 2 2 1 1 0 0 0 0 0 0 0 0 0 0 0 0 0 0 0 0 0 0 0 0 0 0 0 0 0 0 0 0 0 0 0 0 0
0 0 0 0 0 0 1 1 0 0 0 0 0 0 0 0 0 0 0 0 0 0 0 0 0 0 0 0 0 0 0 0 0 0 0 0 0 0 0 0 0 0 0
0 0 0 0 0 0 0 0 0 0 0 0 0 0 0 0 0 0 0 0 0 0 0 0 0 0 0 0 0 0 0 0 0 0 0 0 0 0 0 0 0 0 0
0 0 0 0 0 0 0 0 0 0 0 0 0 0 0 0 0 0 0 0 0 0 0 0 0 0 0 0 0 0 0 0 0 0 0 0 0 0 0 0 0 0 0
0 0 0 0 0 0 0 0 0 0 0 0 0 0 0 0 0 0 0 0 0 0 0 0 0 0 0 0 0 0 0 0 0 0 0 0 0 0 0 0 0 0 0
0 0 0 0 0 0 0 0 0 0 0 0 0 0 0 0 0 0 0 0 0 0 0 0 0 0 0 0 0 0 0 0 0 0 0 0 0 0 0 0 0 0 0
0 0 0 0 0 0 0 0 0 0 0 0 0 0 0 0 0 0 0 0 0 0 0 0 0 0 0 0 0 0 0 0 0 0 0 0 0 0 0 0 0 0 0
0 0 0 0 0 0 0 0 0 0 0 0 0 0 0 0 0 0 0 0 0 0 0 0 0 0 0 0 0 0 0 0 0 0 0 0 0 0 0 0 0 0 0
0 0 0 0 0 0 0 0 0 0 0 0 0 0 0 0 0 0 0 0 0 0 0 0 0 0 0 0 0 0 0 0 0 0 0 0 0 0 0 0 0 0 0
0 0 0 0 0 0 0 0 0 0 0 0 0 0 0 0 0 0 0 0 0 0 0 0 0 0 0 0 0 0 0 0 0 0 0 0 0 0 0 0 0 0 0
0 0 0 0 0 0 0 0 0 0 0 0 0 0 0 0 0 0 0 0 0 0 0 0 0 0 0 0 0 0 0 0 0 0 0 0 0 0 0 0 0 0 0
0 0 0 0 0 0 0 0 0 0 0 0 0 0 0 0 0 0 0 0 0 0 0 0 0 0 0 0 0 0 0 0 0 0 0 0 0 0 0 0 0 0 0
0 0 0 0 0 0 0 0 0 0 0 0 0 0 0 0 0 0 0 0 0 0 0 0 0 0 0 0 0 0 0 0 0 0 0 0 0 0 0 0 0 0 0
0 0 0 0 0 0 0 0 0 0 0 0 0 0 0 0 0 0 0 0 0 0 0 0 0 0 0 0 0 0 0 0 0 0 0 0 0 0 0 0 0 0 0
Wind_Speed
4 3 3 3 2 3 3 2 2 2 2 1 1 1 1 1 1 1 2 2 2 2 1 2 2 2 1 2 2 2 3 3 2 2 4 4 4 2 2 2 2 2 2
3 3 3 2 3 2 2 2 1 1 1 1 0 0 0 0 0 1 2 2 2 2 2 2 1 1 1 2 2 2 2 2 2 1 3 3 3 2 3 2 2 2 2
3 3 2 2 2 2 2 1 1 1 1 1 1 1 1 1 1 1 1 2 2 2 2 2 2 2 1 1 2 2 2 2 2 1 1 2 3 4 3 3 2 2 2
3 3 2 2 2 2 2 2 1 1 1 0 0 1 1 0 1 1 1 2 2 2 2 2 2 2 2 2 2 2 2 2 2 2 2 2 2 3 4 3 2 3 3
4 3 2 3 3 2 2 2 2 2 1 1 1 1 1 0 0 1 1 2 2 2 2 2 2 2 1 2 2 2 2 2 2 2 2 3 3 3 4 5 4 3 3
4 3 3 3 3 3 2 2 2 2 2 2 1 1 1 0 1 1 1 1 1 2 2 2 2 2 2 2 2 2 2 2 3 3 2 2 3 3 3 5 6 5 3
5 4 3 3 3 3 2 2 2 2 2 2 2 2 1 1 1 1 1 1 1 2 2 3 2 2 2 2 2 2 2 3 3 3 3 3 3 3 3 5 6 6 4
4 4 3 3 3 3 2 2 2 1 2 2 2 2 1 1 1 1 1 1 1 2 2 2 2 3 3 3 2 2 2 2 3 4 3 3 3 3 3 4 5 6 4
4 4 3 3 2 2 2 3 2 1 2 2 1 1 1 1 1 1 2 1 2 2 2 2 2 3 3 3 2 2 3 2 3 3 3 3 3 3 3 3 3 4 6
4 4 4 3 3 2 2 3 2 2 1 1 1 1 1 1 1 1 2 2 2 2 2 3 2 3 3 3 2 2 2 2 3 3 3 4 3 3 3 3 3 3 5
4 3 3 3 3 3 3 3 2 2 1 1 2 2 1 1 1 1 1 2 2 3 3 3 3 3 3 3 3 3 3 3 3 3 3 4 3 3 3 2 2 3 3
4 4 3 3 3 3 3 2 2 2 1 1 2 2 1 1 1 1 1 2 2 2 3 3 3 3 3 3 3 3 3 3 3 4 3 4 3 4 3 2 3 3 3
4 4 4 3 3 2 2 2 2 2 2 2 2 1 1 1 1 1 1 2 2 2 2 3 3 3 3 3 3 3 3 3 3 3 3 4 4 4 3 3 3 3 3
4 4 4 4 3 3 2 2 2 3 2 2 2 1 1 1 1 1 1 1 1 2 2 2 2 3 3 3 3 3 3 3 3 3 3 4 4 4 4 3 4 3 4
4 5 4 4 4 3 3 2 2 3 3 3 2 1 1 1 2 2 1 1 1 2 2 2 2 3 3 3 3 2 3 3 3 3 3 3 4 5 5 4 4 4 3
5 5 4 4 4 4 4 3 3 3 3 3 2 1 2 1 1 1 1 2 2 2 2 2 2 3 3 5 6 4 3 3 3 3 3 3 3 4 7 7 7 6 5
6 6 5 5 4 4 5 4 3 3 3 3 2 2 2 1 1 1 1 1 2 2 2 2 2 3 4 6 6 6 3 2 3 3 3 4 4 4 4 6 7 7 7
6 6 5 4 4 4 4 4 4 4 3 3 2 2 2 1 0 1 1 1 1 1 2 2 3 3 4 6 7 6 3 2 3 3 4 4 5 5 5 5 5 5 5
5 5 5 4 4 4 4 5 4 4 3 3 2 2 2 1 1 0 1 1 1 1 2 2 2 3 4 6 7 6 2 2 3 3 3 4 4 7 8 6 5 6 6
5 5 4 4 4 4 5 5 5 4 4 3 3 2 2 2 1 1 0 1 1 1 1 2 2 2 3 6 7 6 2 2 3 3 3 4 6 8 9 5 4 5 6
5 5 5 4 4 4 5 5 4 4 3 3 2 2 2 1 1 0 0 0 0 1 1 2 2 2 3 5 6 6 3 2 3 3 3 4 8 9 9 8 5 5 7
4 5 5 4 3 4 5 5 4 3 3 3 3 2 1 1 1 1 0 0 0 1 1 2 2 2 2 3 4 6 5 4 3 3 3 4 9 10 10 7 7 9 7
5 4 5 4 3 3 5 6 4 4 4 3 3 2 1 1 1 1 1 0 1 1 1 1 2 2 2 3 5 5 5 6 3 3 5 7 9 9 6 8 9 7 4
5 4 5 5 4 3 4 5 4 4 4 4 3 2 2 1 1 1 1 1 1 1 1 1 2 2 2 2 2 2 3 4 3 3 3 6 7 6 6 5 5 4 3
4 5 6 6 5 4 4 4 5 5 5 4 3 2 2 2 1 1 1 1 1 2 2 2 2 2 2 3 4 3 2 2 2 3 2 2 3 3 3 3 3 3 3
4 4 5 5 5 5 5 4 5 6 6 4 4 3 2 2 1 1 1 2 2 2 3 2 2 2 3 4 5 4 4 5 5 3 2 2 3 3 3 4 4 3 3
Wind_Direction
133 122 120 114 103 89 82 71 65 49 41 47 63 69 39 38 27 21 26 34 28 18 10 357 342 348 344 331 334 334 320 315 322 316 307 291 269 257 274 278 280 287 285
134 124 113 111 115 110 102 94 80 59 39 21 3 84 81 100 89 18 9 13 29 21 4 351 336 330 322 334 336 340 326 307 339 325 317 315 311 313 294 291 287 296 313
165 145 134 125 116 114 122 114 105 76 46 33 56 63 53 34 28 13 4 3 8 14 5 355 347 336 335 326 320 325 319 300 301 321 306 310 294 312 281 272 274 296 302
167 156 154 138 111 104 96 97 93 83 66 54 111 109 84 27 345 344 359 3 8 11 1 356 346 344 342 332 318 315 297 294 298 297 279 274 287 300 305 299 300 310 298
163 158 151 143 127 112 93 79 71 63 45 43 51 89 87 71 4 10 4 1 2 9 5 351 346 339 334 327 319 316 310 293 286 292 293 285 287 272 280 291 303 304 290
156 149 141 136 126 115 106 99 80 61 50 56 48 73 86 78 33 4 353 349 345 350 355 342 345 338 329 317 311 311 312 310 301 295 292 291 284 287 278 283 295 294 292
150 151 154 145 138 125 121 112 95 67 63 63 56 56 51 28 19 347 337 340 343 341 346 346 339 329 318 315 313 311 312 306 303 296 292 288 286 296 287 285 292 292 288
148 154 156 151 145 139 138 126 111 90 74 76 64 56 41 37 12 6 356 350 339 326 336 335 333 327 323 325 322 318 310 309 301 300 297 291 291 294 292 287 293 296 288
156 153 149 150 148 145 144 133 121 94 75 76 69 56 49 42 22 6 1 343 332 335 342 339 339 330 327 321 315 308 308 310 305 301 301 296 296 294 292 293 288 284 289
157 154 159 160 157 150 137 121 124 111 90 78 73 56 51 39 34 30 14 360 349 344 340 338 337 334 330 335 328 311 311 311 303 298 299 298 299 299 295 292 290 281 278
158 154 150 152 151 141 139 137 131 113 99 93 85 66 49 42 42 48 23 8 355 353 355 346 340 336 332 334 330 315 316 312 307 309 311 309 312 305 306 304 299 292 284
149 143 146 149 146 150 146 138 129 120 114 100 89 81 62 47 47 44 23 15 5 358 355 348 349 342 338 334 331 323 327 318 314 314 316 313 316 314 305 301 297 292 285
154 151 156 161 159 161 156 146 142 139 128 114 103 88 66 54 52 43 27 17 8 359 359 354 349 342 339 336 335 328 333 330 322 324 329 326 326 318 313 311 302 296 296
170 172 172 172 167 163 161 161 154 143 136 128 121 112 85 64 58 47 27 13 10 4 356 349 343 342 338 335 336 334 334 334 335 335 334 331 325 313 313 314 312 312 310
187 190 186 179 172 167 168 166 162 150 143 138 137 134 95 69 58 46 28 18 16 356 345 345 344 343 335 336 340 339 333 332 332 338 339 337 335 332 326 318 316 319 313
199 195 193 185 182 181 177 169 167 161 149 149 149 126 95 72 57 38 35 36 26 6 6 359 348 346 344 350 344 342 335 331 325 327 333 333 335 339 338 334 330 321 312
201 197 196 192 191 189 179 173 166 155 151 150 142 130 116 98 51 32 40 32 22 15 9 4 0 347 346 347 347 349 344 340 330 328 332 334 341 338 332 335 336 334 324
199 193 188 187 183 179 170 158 149 152 152 148 146 142 135 125 67 45 27 1 13 13 1 357 352 343 342 346 347 351 359 352 350 345 337 331 332 337 340 346 349 347 341
188 181 175 174 169 167 161 150 151 154 154 161 168 159 144 138 117 60 343 339 1 357 346 348 347 339 335 345 348 353 358 2 357 352 346 341 338 342 345 352 348 342 341
166 162 157 155 161 166 152 152 162 163 176 178 169 150 144 155 187 229 308 347 348 321 332 338 340 333 329 341 349 352 353 353 347 347 350 351 347 346 348 351 349 343 336
159 155 154 162 171 158 152 165 167 184 182 156 142 143 158 175 199 208 282 289 301 323 330 325 329 331 330 336 350 354 357 348 340 339 346 350 349 349 351 352 357 342 338
159 158 156 163 162 157 160 170 183 180 150 143 145 159 174 181 164 167 244 265 259 285 300 314 323 331 336 345 348 353 355 349 342 337 341 345 347 348 351 357 358 354 355
168 159 158 162 167 169 169 180 188 156 146 147 161 173 169 166 173 193 215 232 243 265 284 302 311 319 335 336 342 345 347 348 348 342 340 341 346 348 355 3 357 356 1
175 167 161 171 188 187 183 182 165 149 150 163 176 173 169 178 188 205 213 217 232 253 269 283 296 308 317 317 326 331 334 342 340 337 341 343 349 351 351 353 355 357 354
181 175 179 189 198 186 186 175 160 154 163 171 176 178 183 187 196 213 219 235 238 227 249 256 261 279 294 304 318 321 315 311 310 331 346 345 345 352 352 353 353 352 353
185 185 190 194 197 184 186 179 169 165 166 174 182 186 184 188 195 207 280 275 268 283 281 277 280 286 296 314 321 323 328 335 341 360 355 343 341 338 338 340 340 343 343